EW0349 Weather Reports


time (UTC)temp
C
wind
direction
speed
KPH
gust
KPH
rain 1hr
cm
rain 24hr
cm
rain mn
cm
humidity
%
barometer
mb
20260506141507 10 292 0.0 1.6 0.00 0.00 0.00 14 1019.9
20260506140104 10 292 0.0 0.0 0.00 0.00 0.00 11 1019.9
20260506134556 10 292 0.0 0.0 0.00 0.00 0.00 14 1020.0
20260506133052 10 292 0.0 1.6 0.00 0.00 0.00 12 1020.0
20260506131546 10 292 0.0 0.0 0.00 0.00 0.00 12 1019.9
20260506130042 10 292 0.0 3.2 0.00 0.00 0.00 10 1019.7
20260506124538 10 292 0.0 1.6 0.00 0.00 0.00 9 1019.7
20260506123034 10 292 0.0 0.0 0.00 0.00 0.00 10 1019.8
20260506121529 10 292 0.0 4.8 0.00 0.00 0.00 7 1019.6
20260506120038 10 292 1.6 4.8 0.00 0.00 0.00 2 1019.6
20260506114520 10 285 0.0 3.2 0.00 0.00 0.00 100 1019.3
20260506113026 10 285 0.0 3.2 0.00 0.00 0.00 100 1019.1
20260506111510 9 285 0.0 4.8 0.00 0.00 0.00 100 1018.9
20260506110009 9 285 0.0 0.0 0.00 0.00 0.00 1 1018.7
20260506104502 8 285 0.0 0.0 0.00 0.00 0.00 8 1018.4
20260506103122 8 285 0.0 0.0 0.00 0.00 0.00 14 1018.3
20260506101555 9 285 0.0 0.0 0.00 0.00 0.00 18 1018.1
20260506100053 9 285 0.0 0.0 0.00 0.00 0.00 22 1018.0
20260506094550 10 285 0.0 0.0 0.00 0.00 0.00 25 1017.9
20260506093046 10 285 0.0 0.0 0.00 0.00 0.00 27 1017.8
20260506091543 10 285 0.0 0.0 0.00 0.00 0.00 31 1017.8
20260506090048 10 285 0.0 0.0 0.00 0.00 0.00 35 1017.6
20260506084548 11 285 0.0 0.0 0.00 0.00 0.00 39 1017.6
20260506083034 11 285 0.0 1.6 0.00 0.00 0.00 43 1017.4
20260506081537 12 285 0.0 0.0 0.00 0.00 0.00 47 1017.4
20260506073022 13 285 0.0 0.0 0.00 0.00 0.00 58 1017.3
20260506071519 13 285 0.0 0.0 0.00 0.00 0.00 58 1017.2
20260506061533 13 285 0.0 0.0 0.00 0.00 0.00 61 1016.8
20260506044510 13 79 0.0 0.0 0.00 0.00 0.00 56 1016.3
20260506043012 14 79 0.0 0.0 0.00 0.00 0.00 59 1016.2
20260506041507 14 79 0.0 0.0 0.00 0.00 0.00 62 1016.0
20260506040008 14 79 0.0 0.0 0.00 0.00 0.00 64 1015.8
20260506034507 15 79 0.0 0.0 0.00 0.00 0.00 65 1015.5
20260506033006 15 79 0.0 1.6 0.00 0.00 0.00 67 1015.4
20260506031505 15 79 0.0 0.0 0.00 0.00 0.00 67 1015.3
20260506030004 15 79 0.0 0.0 0.00 0.00 0.00 67 1015.1
20260506024512 15 79 0.0 3.2 0.00 0.00 0.00 67 1015.0
20260506023004 16 79 0.0 3.2 0.00 0.00 0.00 67 1015.1
20260506021502 16 79 0.0 6.4 0.00 0.00 0.00 66 1015.1
20260506020005 16 82 0.0 6.4 0.00 0.00 0.00 66 1015.0
20260506014601 17 86 1.6 6.4 0.00 0.00 0.00 65 1014.9
20260506013107 17 104 1.6 4.8 0.00 0.00 0.00 63 1014.9
20260506011607 18 105 0.0 6.4 0.00 0.00 0.00 63 1014.9
20260506010057 18 116 0.0 4.8 0.00 0.00 0.00 63 1014.9
20260506004555 18 116 0.0 4.8 0.00 0.00 0.00 64 1014.9
20260506003055 17 111 0.0 6.4 0.00 0.00 0.00 63 1014.9
20260506001554 17 30 0.0 3.2 0.00 0.00 0.00 64 1014.9
20260506000053 17 19 0.0 4.8 0.00 0.00 0.00 64 1015.1
20260505234602 17 99 1.6 4.8 0.00 0.00 0.00 63 1015.2
20260505233050 17 77 1.6 4.8 0.00 0.00 0.00 63 1015.4
20260505231603 16 81 1.6 6.4 0.00 0.00 0.00 64 1015.4
20260505230051 16 111 0.0 4.8 0.00 0.00 0.00 64 1015.5
20260505224546 16 65 1.6 6.4 0.00 0.00 0.00 64 1015.6
20260505223043 16 290 1.6 6.4 0.00 0.00 0.00 64 1015.7
20260505221541 16 279 3.2 8.0 0.00 0.00 0.00 65 1015.8
20260505220042 16 273 3.2 6.4 0.00 0.00 0.00 64 1016.0
20260505214601 16 275 1.6 6.4 0.00 0.00 0.00 65 1016.0
20260505213039 15 275 0.0 6.4 0.00 0.00 0.00 65 1016.0
20260505211537 15 307 0.0 4.8 0.00 0.00 0.00 64 1016.1
20260505210037 15 181 0.0 6.4 0.00 0.00 0.00 64 1016.2
20260505204535 15 284 1.6 6.4 0.00 0.00 0.00 65 1016.2
20260505203034 15 186 1.6 4.8 0.00 0.00 0.00 64 1016.3
20260505201530 15 146 0.0 3.2 0.00 0.00 0.00 64 1016.3
20260505200040 15 146 0.0 4.8 0.00 0.00 0.00 64 1016.4
20260505194528 14 126 1.6 4.8 0.00 0.00 0.00 64 1016.4
20260505193027 14 360 0.0 6.4 0.00 0.00 0.00 64 1016.4
20260505191525 14 286 0.0 6.4 0.00 0.00 0.00 64 1016.5
20260505190028 14 312 1.6 6.4 0.00 0.00 0.00 64 1016.5
20260505184523 14 360 1.6 3.2 0.00 0.00 0.00 63 1016.4
20260505183028 13 350 0.0 3.2 0.00 0.00 0.00 63 1016.5
20260505181520 13 350 0.0 4.8 0.00 0.00 0.00 63 1016.5
20260505180023 13 232 0.0 4.8 0.00 0.00 0.00 63 1016.4
20260505174518 13 161 0.0 3.2 0.00 0.00 0.00 61 1016.3
20260505173015 13 184 0.0 3.2 0.00 0.00 0.00 61 1016.2
20260505171511 12 185 0.0 4.8 0.00 0.00 0.00 61 1016.1
20260505170010 12 152 1.6 4.8 0.00 0.00 0.00 61 1016.2
20260505164509 12 188 3.2 8.0 0.00 0.00 0.00 60 1016.2
20260505163012 12 23 0.0 1.6 0.00 0.00 0.00 54 1016.0
20260505161504 12 215 0.0 4.8 0.00 0.00 0.00 55 1016.0
20260505153108 11 204 0.0 3.2 0.00 0.00 0.00 49 1016.0
20260505151607 11 206 0.0 3.2 0.00 0.00 0.00 47 1015.9